Darstellungsparameter: Aktuell verwendete Einstellungen:
Skalierung der Graphiken ... ?
xyx+y,   Skalierungsfaktor:      Skalierung: Modus: x, Faktor: 1
Darstellungszeitraum ... ?
Vom - - bis: - -   Zeitraum: 02.10.2009 - 02.10.2009
Min/Max/Avg-Anzeige ... ?
Zeige MMA aktuell
Zeige MMA Monat
Zeige MMA alles
Zeige --A aktuell
Zeige --A Monat
Zeige --A alles
Keine MMA-Anzeige
MMA:
Keine MMA-Graphiken
MMA-Basis: 02.10.2009 - 02.10.2009
Quicknavigation für Darstellung... ?
Tage:      1T, 2T, 3T, 5T -1T -2T -3T -5T +1T +2T +3T +5T
Wochen: 1W, 2W, 3W -1W -2W -3W +1W +2W +3W
Monate: 1M, 3M, 6M -1M -3M -6M +1M +3M +6M
Jahre:    1J, 3J, 5J, 10J -1J -3J -5J -10J +1J +3J +5J +10J
Nutze für die Darstellung ... ?
Originaldaten oder Mittelwerte auf ...
Stundenbasis Tagesbasis Wochenbasis
Monatsbasis Jahresbasis      Datenbasis: Original-Daten
Darstellen als:
Statistik (Auto) Statistik J:M      Darstellung:
Zur Graphik,    zurück zur Übersicht aller Sensoren.
 
Tabellarische Datenbersicht: ?
 
Sensor: Nr:Datum:Temp:Abs-Feuchte:Windchill:Wind:
Aussen-T/F 1 02-10-2009 00:02:02 11.7 C 7.32 g/m*3 11.7 C 0 km/h
2 02-10-2009 00:14:02 12 C 7.35 g/m*3 12 C 0 km/h
3 02-10-2009 00:26:02 11.9 C 7.41 g/m*3 11.9 C 0 km/h
4 02-10-2009 00:38:02 11.7 C 7.43 g/m*3 11.7 C 0 km/h
5 02-10-2009 00:50:02 11.5 C 7.02 g/m*3 11.5 C 0 km/h
6 02-10-2009 01:02:02 11.3 C 6.83 g/m*3 11.3 C 0 km/h
7 02-10-2009 01:14:02 11.3 C 6.83 g/m*3 11.3 C 0 km/h
8 02-10-2009 01:26:02 11.1 C 6.75 g/m*3 11.1 C 0 km/h
9 02-10-2009 01:38:02 10.8 C 6.82 g/m*3 10.8 C 0 km/h
10 02-10-2009 01:50:02 10.6 C 6.93 g/m*3 10.6 C 0 km/h
11 02-10-2009 02:02:02 10.4 C 7.04 g/m*3 10.4 C 0 km/h
12 02-10-2009 02:14:02 10.1 C 7 g/m*3 10.1 C 0 km/h
13 02-10-2009 02:26:03 10 C 7.05 g/m*3 10 C 0 km/h
14 02-10-2009 02:38:03 10 C 6.95 g/m*3 10 C 0 km/h
15 02-10-2009 02:50:03 9.9 C 7.1 g/m*3 9.9 C 0 km/h
16 02-10-2009 03:02:03 9.8 C 7.05 g/m*3 9.8 C 0 km/h
17 02-10-2009 03:14:03 9.5 C 6.92 g/m*3 9.5 C 0 km/h
18 02-10-2009 03:26:03 9.2 C 6.88 g/m*3 9.2 C 0 km/h
19 02-10-2009 03:38:03 9.1 C 7.01 g/m*3 9.1 C 0 km/h
20 02-10-2009 03:50:03 8.8 C 7.05 g/m*3 8.8 C 0 km/h
21 02-10-2009 04:02:03 8.6 C 6.96 g/m*3 8.6 C 0 km/h
22 02-10-2009 04:14:03 8.6 C 7.13 g/m*3 8.6 C 0 km/h
23 02-10-2009 04:26:03 8.4 C 7.04 g/m*3 8.4 C 0 km/h
24 02-10-2009 04:38:03 8.2 C 7.03 g/m*3 8.2 C 0 km/h
25 02-10-2009 04:50:03 8.2 C 7.03 g/m*3 8.2 C 0 km/h
Sensor: Nr:Datum:Temp:Abs-Feuchte:Windchill:Wind:
Aussen-T/F 26 02-10-2009 05:02:03 8 C 6.94 g/m*3 8 C 0 km/h
27 02-10-2009 05:14:03 7.8 C 7.02 g/m*3 7.8 C 0 km/h
28 02-10-2009 05:26:03 7.8 C 7.1 g/m*3 7.8 C 0 km/h
29 02-10-2009 05:38:03 7.6 C 7.01 g/m*3 7.6 C 0 km/h
30 02-10-2009 05:50:03 7.5 C 6.96 g/m*3 7.5 C 0 km/h
31 02-10-2009 06:02:03 7.5 C 7.04 g/m*3 7.5 C 0 km/h
32 02-10-2009 06:14:04 7.5 C 7.04 g/m*3 7.5 C 0 km/h
33 02-10-2009 06:26:04 7.3 C 6.95 g/m*3 7.3 C 0 km/h
34 02-10-2009 06:38:04 7.3 C 6.95 g/m*3 7.3 C 0 km/h
35 02-10-2009 06:50:04 7.3 C 6.95 g/m*3 7.3 C 0 km/h
36 02-10-2009 07:02:02 7.2 C 6.91 g/m*3 7.2 C 0 km/h
37 02-10-2009 07:14:02 7.1 C 6.94 g/m*3 7.1 C 0 km/h
38 02-10-2009 07:26:02 7.2 C 6.99 g/m*3 7.2 C 0 km/h
39 02-10-2009 07:38:01 7.1 C 6.94 g/m*3 7.1 C 0 km/h
40 02-10-2009 07:50:02 7.2 C 6.99 g/m*3 7.2 C 0 km/h
41 02-10-2009 08:02:01 7.5 C 7.12 g/m*3 7.5 C 0 km/h
42 02-10-2009 08:14:01 7.4 C 7 g/m*3 7.4 C 0 km/h
43 02-10-2009 08:26:02 7.5 C 6.96 g/m*3 7.5 C 0 km/h
44 02-10-2009 08:38:01 7.4 C 6.92 g/m*3 7.4 C 0 km/h
45 02-10-2009 08:50:03 7.5 C 6.96 g/m*3 7.5 C 0 km/h
46 02-10-2009 09:02:02 7.6 C 7.01 g/m*3 7.6 C 0 km/h
47 02-10-2009 09:14:02 7.9 C 7.06 g/m*3 7.9 C 0 km/h
48 02-10-2009 09:26:02 8.2 C 7.03 g/m*3 8.2 C 0 km/h
49 02-10-2009 09:38:03 8.5 C 7.09 g/m*3 8.5 C 0 km/h
50 02-10-2009 09:50:02 8.5 C 7 g/m*3 8.5 C 0 km/h
Sensor: Nr:Datum:Temp:Abs-Feuchte:Windchill:Wind:
Aussen-T/F 51 02-10-2009 10:02:02 8.7 C 7.18 g/m*3 8.7 C 0 km/h
52 02-10-2009 10:14:02 9.3 C 7.19 g/m*3 9.3 C 0 km/h
53 02-10-2009 10:26:02 10 C 6.77 g/m*3 10 C 0 km/h
54 02-10-2009 10:38:02 10.1 C 6.62 g/m*3 10.1 C 0 km/h
55 02-10-2009 10:50:01 10.6 C 6.73 g/m*3 10.6 C 0 km/h
56 02-10-2009 11:02:02 11.2 C 6.49 g/m*3 11.2 C 0 km/h
57 02-10-2009 11:14:02 11.5 C 6.51 g/m*3 11.5 C 0 km/h
58 02-10-2009 11:26:01 11.8 C 6.31 g/m*3 11.8 C 0 km/h
59 02-10-2009 11:38:01 12.1 C 6.22 g/m*3 12.1 C 0 km/h
60 02-10-2009 11:50:01 12.8 C 6.05 g/m*3 12.8 C 0 km/h
61 02-10-2009 12:02:02 13.4 C 5.81 g/m*3 13.4 C 0 km/h
62 02-10-2009 12:14:02 13.6 C 5.65 g/m*3 13.6 C 0 km/h
63 02-10-2009 12:26:01 14.1 C 5.58 g/m*3 14.1 C 0 km/h
64 02-10-2009 12:38:02 14.3 C 5.28 g/m*3 14.3 C 0 km/h
65 02-10-2009 12:50:01 14.6 C 5.13 g/m*3 14.6 C 0 km/h
66 02-10-2009 13:02:02 14.5 C 4.97 g/m*3 14.5 C 0 km/h
67 02-10-2009 13:14:02 14.6 C 4.76 g/m*3 14.6 C 0 km/h
68 02-10-2009 13:26:01 14.6 C 5.01 g/m*3 14.6 C 0 km/h
69 02-10-2009 13:38:02 14.7 C 5.04 g/m*3 14.7 C 0 km/h
70 02-10-2009 13:50:01 14.1 C 4.98 g/m*3 14.1 C 0 km/h
71 02-10-2009 14:02:02 13.9 C 4.92 g/m*3 13.9 C 0 km/h
72 02-10-2009 14:14:02 13.9 C 5.15 g/m*3 13.9 C 0 km/h
73 02-10-2009 14:26:02 13.8 C 5.24 g/m*3 13.8 C 0 km/h
74 02-10-2009 14:38:01 13.8 C 5.36 g/m*3 13.8 C 0 km/h
75 02-10-2009 14:50:02 14.2 C 5.37 g/m*3 14.2 C 0 km/h
Sensor: Nr:Datum:Temp:Abs-Feuchte:Windchill:Wind:
Aussen-T/F 76 02-10-2009 15:02:01 14.4 C 5.44 g/m*3 14.4 C 0 km/h
77 02-10-2009 15:14:01 14.8 C 5.32 g/m*3 14.8 C 0 km/h
78 02-10-2009 15:26:02 15.2 C 5.45 g/m*3 15.2 C 0 km/h
79 02-10-2009 15:38:01 15.3 C 5.62 g/m*3 15.3 C 0 km/h
80 02-10-2009 15:50:03 14.9 C 5.48 g/m*3 14.9 C 0 km/h
81 02-10-2009 16:02:02 14.8 C 5.57 g/m*3 14.8 C 0 km/h
82 02-10-2009 16:14:02 15 C 5.39 g/m*3 15 C 0 km/h
83 02-10-2009 16:26:02 15 C 5.51 g/m*3 15 C 0 km/h
84 02-10-2009 16:38:02 14.9 C 5.61 g/m*3 14.9 C 0 km/h
85 02-10-2009 16:50:02 14.9 C 5.74 g/m*3 14.9 C 0 km/h
86 02-10-2009 17:02:01 14.8 C 5.7 g/m*3 14.8 C 0 km/h
87 02-10-2009 17:14:01 14.9 C 5.74 g/m*3 14.9 C 0 km/h
88 02-10-2009 17:26:02 14.8 C 5.57 g/m*3 14.8 C 0 km/h
89 02-10-2009 17:38:02 14.7 C 5.41 g/m*3 14.7 C 0 km/h
90 02-10-2009 17:50:01 14.7 C 5.54 g/m*3 14.7 C 0 km/h
91 02-10-2009 18:02:02 14.5 C 5.47 g/m*3 14.5 C 0 km/h
92 02-10-2009 18:14:02 14.4 C 5.69 g/m*3 14.4 C 0 km/h
93 02-10-2009 18:26:01 14.4 C 5.69 g/m*3 14.4 C 0 km/h
94 02-10-2009 18:38:02 14.6 C 5.76 g/m*3 14.6 C 0 km/h
95 02-10-2009 18:50:02 14.1 C 5.7 g/m*3 14.1 C 0 km/h
96 02-10-2009 19:02:02 14 C 5.79 g/m*3 14 C 0 km/h
97 02-10-2009 19:14:02 13.8 C 5.96 g/m*3 13.8 C 0 km/h
98 02-10-2009 19:26:01 13.7 C 6.04 g/m*3 13.7 C 0 km/h
99 02-10-2009 19:38:02 13.6 C 6 g/m*3 13.6 C 0 km/h
100 02-10-2009 19:50:02 13.5 C 6.08 g/m*3 13.5 C 0 km/h
Sensor: Nr:Datum:Temp:Abs-Feuchte:Windchill:Wind:
Aussen-T/F 101 02-10-2009 20:02:02 13.4 C 6.16 g/m*3 13.4 C 0 km/h
102 02-10-2009 20:14:02 13.1 C 6.16 g/m*3 13.1 C 0 km/h
103 02-10-2009 20:26:01 12.9 C 6.31 g/m*3 12.9 C 0 km/h
104 02-10-2009 20:38:02 12.7 C 6.35 g/m*3 12.7 C 0 km/h
105 02-10-2009 20:50:02 12.6 C 6.31 g/m*3 12.6 C 0 km/h
106 02-10-2009 21:02:02 12.6 C 6.42 g/m*3 12.6 C 0 km/h
107 02-10-2009 21:14:03 12.3 C 6.41 g/m*3 12.3 C 0 km/h
108 02-10-2009 21:26:01 12.2 C 6.47 g/m*3 12.2 C 0 km/h
109 02-10-2009 21:38:02 12 C 6.5 g/m*3 12 C 0 km/h
110 02-10-2009 21:50:02 11.9 C 6.57 g/m*3 11.9 C 0 km/h
111 02-10-2009 22:02:02 11.7 C 6.48 g/m*3 11.7 C 0 km/h
112 02-10-2009 22:14:02 11.5 C 6.61 g/m*3 11.5 C 0 km/h
113 02-10-2009 22:26:02 11 C 6.41 g/m*3 11 C 0 km/h
114 02-10-2009 22:39:04 10.8 C 6.52 g/m*3 10.8 C 0 km/h
115 02-10-2009 22:51:04 10.7 C 6.58 g/m*3 10.7 C 0 km/h
116 02-10-2009 23:03:04 10.7 C 6.68 g/m*3 10.7 C 0 km/h
117 02-10-2009 23:15:04 10.5 C 6.6 g/m*3 10.5 C 0 km/h
118 02-10-2009 23:27:05 10.2 C 6.57 g/m*3 10.2 C 0 km/h
119 02-10-2009 23:39:05 10 C 6.58 g/m*3 10 C 0 km/h
120 02-10-2009 23:51:05 9.8 C 6.68 g/m*3 9.8 C 0 km/h

Legende:
   Min
   Max


Maximal/Minimal-Werte vom 02.10.2009 - 02.10.2009

Sensor Min Max Avg
Temp
(Aussen-T/F)
7.1 °C
02-10-2009  07:14:02
15.3 °C
02-10-2009  15:38:01
11.32 °C
Abs-Feuchte
(Aussen-T/F)
4.76 g/m*3
02-10-2009  13:14:02
7.43 g/m*3
02-10-2009  00:38:02
6.33 g/m*3
Windchill
(Aussen-T/F)
7.1 C
02-10-2009  07:14:02
15.3 C
02-10-2009  15:38:01
11.23 C

Die Daten stammen von einer Davis Vantage Pro 2 Wetter-Station und werden unter Linux mit der Software wview2wettercgi und aufbereitet. Alle Angaben erfolgen ohne Gewähr für ihre Vollständigkeit oder Richtigkeit.
Kontakt: Rainer Krienke krienke@uni-koblenz.de . Meine Webseiten an der Uni Koblenz oder privat.
Version: $Revision: 0.78 $